Location: Creston
(40.9870°N, 81.8938°W)
Time: 18:46:34
(UTC+00:00)

AQUARIUS - Pass Details

Date: 29 October 2020
Orbit: 650 x 653 km, 98.0° (Epoch: 24 November)

Event Time Altitude Azimuth Distance (km) Brightness Sun altitude
Rises 23:00:30 0° 168° (SSE) 2,959 7.6 -7.0°
Reaches altitude 10° 23:02:42 10° 169° (SSE) 2,053 6.8 -7.5°
Maximum altitude 23:07:11 83° 257° (WSW) 663 4.3 -8.3°
Drops below altitude 10° 23:11:43 10° 346° (NNW) 2,068 6.8 -9.1°
Sets 23:13:56 0° 347° (NNW) 2,983 7.6 -9.5°
